timestamp,surface_pressure_avg,surface_temp_avg,battery_voltage,lat,long
2020-11-26 00:09:01+00:00,260.9781,6.74,12.65,47.84626,-54.09684
2020-11-26 00:19:01+00:00,251.6731,6.79,12.65,47.84626,-54.09684
2020-11-26 00:29:01+00:00,249.4547,6.8,12.65,47.84626,-54.09684
2020-11-26 00:39:01+00:00,245.5497,6.8,12.65,47.84626,-54.09684
2020-11-26 00:49:01+00:00,236.0098,6.79,12.65,47.84626,-54.09684
2020-11-26 00:59:01+00:00,227.6414,6.71,12.65,47.84626,-54.09684
2020-11-26 01:09:01+00:00,224.2564,6.73,12.65,47.84626,-54.09684
2020-11-26 01:19:01+00:00,221.8864,6.77,12.65,47.84626,-54.09684
2020-11-26 01:29:01+00:00,216.3798,6.79,12.65,47.84626,-54.09684
2020-11-26 01:39:01+00:00,209.1698,6.8,12.65,47.84626,-54.09684
2020-11-26 01:49:01+00:00,208.1631,6.79,12.65,47.84626,-54.09684
2020-11-26 01:59:01+00:00,209.5864,6.79,12.65,47.84626,-54.09684
2020-11-26 02:09:01+00:00,205.4698,6.6,12.65,47.84626,-54.09684
2020-11-26 02:19:01+00:00,201.9748,6.3,12.65,47.84626,-54.09684
2020-11-26 02:29:01+00:00,200.5631,6.1,12.65,47.84626,-54.09684
2020-11-26 02:39:01+00:00,199.0698,6.0,12.65,47.84626,-54.09684
2020-11-26 02:49:01+00:00,199.8298,5.91,12.65,47.84626,-54.09684
2020-11-26 02:59:01+00:00,203.9064,5.9,12.65,47.84626,-54.09684
2020-11-26 03:09:01+00:00,204.0481,5.89,12.65,47.84626,-54.09684
2020-11-26 03:19:01+00:00,201.2681,5.8,12.65,47.84626,-54.09684
2020-11-26 03:29:01+00:00,202.3281,5.8,12.65,47.84626,-54.09684
2020-11-26 03:39:01+00:00,203.5431,5.8,12.65,47.84626,-54.09684
2020-11-26 03:49:01+00:00,203.8414,5.8,12.65,47.84626,-54.09684
2020-11-26 03:59:01+00:00,204.2081,5.79,12.65,47.84626,-54.09684
2020-11-26 04:09:01+00:00,206.9531,5.7,12.65,47.84626,-54.09684
2020-11-26 04:19:01+00:00,214.0848,5.7,12.65,47.84626,-54.09684
2020-11-26 04:29:01+00:00,218.6331,5.7,12.65,47.84626,-54.09684
2020-11-26 04:39:01+00:00,217.5948,5.7,12.65,47.84626,-54.09684
2020-11-26 04:49:01+00:00,218.6131,5.7,12.65,47.84626,-54.09684
2020-11-26 04:59:01+00:00,227.3614,5.7,12.65,47.84626,-54.09684
2020-11-26 05:09:01+00:00,228.6664,5.7,12.65,47.84626,-54.09684
2020-11-26 05:19:01+00:00,226.8681,5.7,12.65,47.84626,-54.09684
2020-11-26 05:29:01+00:00,233.3714,5.7,12.65,47.84626,-54.09684
2020-11-26 05:39:01+00:00,238.0897,5.7,12.65,47.84626,-54.09684
2020-11-26 05:49:01+00:00,235.8597,5.7,12.65,47.84626,-54.09684
2020-11-26 05:59:01+00:00,239.9731,5.7,12.65,47.84626,-54.09684
2020-11-26 06:09:01+00:00,250.6864,5.75,12.65,47.84626,-54.09684
2020-11-26 06:19:01+00:00,252.7348,5.9,12.65,47.84626,-54.09684
2020-11-26 06:29:01+00:00,253.2847,5.9,12.65,47.84626,-54.09684
2020-11-26 06:39:01+00:00,263.1014,5.89,12.65,47.84626,-54.09684
2020-11-26 06:49:01+00:00,271.9981,5.9,12.65,47.84626,-54.09684
2020-11-26 06:59:01+00:00,271.5964,6.0,12.65,47.84626,-54.09684
2020-11-26 07:09:01+00:00,270.1548,6.0,12.65,47.84626,-54.09684
2020-11-26 07:19:01+00:00,280.1197,6.0,12.65,47.84626,-54.09684
2020-11-26 07:29:01+00:00,285.0881,6.02,12.65,47.84626,-54.09684
2020-11-26 07:39:01+00:00,285.7697,6.03,12.65,47.84626,-54.09684
2020-11-26 07:49:01+00:00,290.7631,6.09,12.65,47.84626,-54.09684
2020-11-26 07:59:01+00:00,298.468,6.14,12.65,47.84626,-54.09684
2020-11-26 08:09:01+00:00,295.3697,6.1,12.65,47.84626,-54.09684
2020-11-26 08:19:01+00:00,294.978,6.1,12.65,47.84626,-54.09684
2020-11-26 08:29:01+00:00,301.4764,6.1,12.65,47.84626,-54.09684
2020-11-26 08:39:01+00:00,307.9014,6.15,12.65,47.84626,-54.09684
2020-11-26 08:49:01+00:00,307.1164,6.18,12.65,47.84626,-54.09684
2020-11-26 08:59:01+00:00,308.33799999999997,6.19,12.65,47.84626,-54.09684
2020-11-26 09:09:01+00:00,308.1379,6.2,12.65,47.84626,-54.09684
2020-11-26 09:19:01+00:00,309.128,6.2,12.65,47.84626,-54.09684
2020-11-26 09:29:01+00:00,310.3929,6.2,12.65,47.84626,-54.09684
2020-11-26 09:39:01+00:00,312.6514,6.25,12.65,47.84626,-54.09684
2020-11-26 09:49:01+00:00,313.988,6.3,12.65,47.84626,-54.09684
2020-11-26 09:59:01+00:00,310.243,6.28,12.65,47.84626,-54.09684
2020-11-26 10:09:01+00:00,307.5731,6.26,12.65,47.84626,-54.09684
2020-11-26 10:19:01+00:00,307.8447,6.2,12.65,47.84626,-54.09684
2020-11-26 10:29:01+00:00,300.7264,6.2,12.65,47.84626,-54.09684
2020-11-26 10:39:01+00:00,296.733,6.14,12.65,47.84626,-54.09684
2020-11-26 10:49:01+00:00,296.2664,6.14,12.65,47.84626,-54.09684
2020-11-26 10:59:01+00:00,294.7097,6.1,12.65,47.84626,-54.09684
2020-11-26 11:09:01+00:00,285.6797,6.05,12.65,47.84626,-54.09684
2020-11-26 11:19:01+00:00,280.523,6.05,12.65,47.84626,-54.09684
2020-11-26 11:29:01+00:00,277.6364,6.02,12.65,47.84626,-54.09684
2020-11-26 11:39:01+00:00,271.8197,6.08,12.65,47.84626,-54.09684
2020-11-26 11:49:01+00:00,262.8098,6.1,12.65,47.84626,-54.09684
2020-11-26 11:59:01+00:00,257.7848,6.1,12.65,47.84626,-54.09684
2020-11-26 12:09:01+00:00,255.7081,6.1,12.65,47.84626,-54.09684
2020-11-26 12:19:01+00:00,246.9531,6.1,13.21,47.84626,-54.09684
2020-11-26 12:29:01+00:00,237.9014,6.1,13.21,47.84626,-54.09684
2020-11-26 12:39:01+00:00,234.8281,6.1,13.21,47.84626,-54.09684
2020-11-26 12:49:01+00:00,230.0764,6.1,13.21,47.84626,-54.09684
2020-11-26 12:59:01+00:00,220.3281,6.1,13.21,47.84626,-54.09684
2020-11-26 13:09:01+00:00,219.3698,6.1,13.21,47.84626,-54.09684
2020-11-26 13:19:01+00:00,220.7631,6.1,13.21,47.84626,-54.09684
2020-11-26 13:29:01+00:00,213.7415,6.15,13.21,47.84626,-54.09684
2020-11-26 13:39:01+00:00,207.3131,6.18,13.21,47.84626,-54.09684
2020-11-26 13:49:01+00:00,207.9897,6.2,13.21,47.84626,-54.09684
2020-11-26 13:59:01+00:00,207.5215,6.2,13.21,47.84626,-54.09684
2020-11-26 14:09:01+00:00,205.4181,6.2,13.21,47.84626,-54.09684
2020-11-26 14:19:01+00:00,205.9164,6.26,13.21,47.84626,-54.09684
2020-11-26 14:29:01+00:00,206.1014,6.36,13.21,47.84626,-54.09684
2020-11-26 14:39:01+00:00,203.7914,6.39,13.21,47.84626,-54.09684
2020-11-26 14:49:01+00:00,202.1298,6.29,13.21,47.84626,-54.09684
2020-11-26 14:59:01+00:00,201.2131,6.47,13.21,47.84626,-54.09684
2020-11-26 15:09:01+00:00,201.1781,6.4,13.21,47.84626,-54.09684
2020-11-26 15:19:01+00:00,200.3464,6.4,13.13,47.84626,-54.09684
2020-11-26 15:29:01+00:00,199.2615,6.4,13.13,47.84626,-54.09684
2020-11-26 15:39:01+00:00,197.3081,6.4,13.13,47.84626,-54.09684
2020-11-26 15:49:01+00:00,199.3264,6.4,13.13,47.84626,-54.09684
2020-11-26 15:59:01+00:00,203.1131,6.4,13.13,47.84626,-54.09684
2020-11-26 16:09:01+00:00,198.1481,6.39,13.13,47.84626,-54.09684
2020-11-26 16:19:01+00:00,195.1748,6.4,13.13,47.84626,-54.09684
2020-11-26 16:29:01+00:00,201.0515,6.42,13.13,47.84626,-54.09684
2020-11-26 16:39:01+00:00,208.5064,6.5,13.13,47.84626,-54.09684
2020-11-26 16:49:01+00:00,210.4847,6.59,13.13,47.84626,-54.09684
2020-11-26 16:59:01+00:00,210.1147,6.59,13.13,47.84626,-54.09684
2020-11-26 17:09:01+00:00,217.6265,6.5,13.13,47.84626,-54.09684
2020-11-26 17:19:01+00:00,221.9298,6.5,13.21,47.84626,-54.09684
2020-11-26 17:29:01+00:00,216.6165,6.5,13.21,47.84626,-54.09684
2020-11-26 17:39:01+00:00,221.9431,6.5,13.21,47.84626,-54.09684
2020-11-26 17:49:01+00:00,231.7647,6.5,13.21,47.84626,-54.09684
2020-11-26 17:59:01+00:00,231.3065,6.5,13.21,47.84626,-54.09684
2020-11-26 18:09:01+00:00,229.5031,6.5,13.21,47.84626,-54.09684
2020-11-26 18:19:01+00:00,236.3214,6.5,13.05,47.84626,-54.09684
2020-11-26 18:29:01+00:00,244.6064,6.5,13.05,47.84626,-54.09684
2020-11-26 18:39:01+00:00,245.6797,6.4,13.05,47.84626,-54.09684
2020-11-26 18:49:01+00:00,246.4381,6.3,13.05,47.84626,-54.09684
2020-11-26 18:59:01+00:00,255.5531,6.39,13.05,47.84626,-54.09684
2020-11-26 19:09:01+00:00,263.1597,6.4,13.05,47.84626,-54.09684
2020-11-26 19:19:01+00:00,265.1698,6.4,12.97,47.84626,-54.09684
2020-11-26 19:29:01+00:00,270.618,6.4,12.97,47.84626,-54.09684
2020-11-26 19:39:01+00:00,282.2814,6.45,12.97,47.84626,-54.09684
2020-11-26 19:49:01+00:00,290.0098,6.47,12.97,47.84626,-54.09684
2020-11-26 19:59:01+00:00,296.303,6.48,12.97,47.84626,-54.09684
2020-11-26 20:09:01+00:00,305.3947,6.49,12.97,47.84626,-54.09684
2020-11-26 20:19:01+00:00,311.5163,6.5,12.81,47.84626,-54.09684
2020-11-26 20:29:01+00:00,309.353,6.5,12.81,47.84626,-54.09684
2020-11-26 20:39:01+00:00,311.5613,6.5,12.81,47.84626,-54.09684
2020-11-26 20:49:01+00:00,318.1863,6.5,12.81,47.84626,-54.09684
2020-11-26 20:59:01+00:00,319.7264,6.49,12.81,47.84626,-54.09684
2020-11-26 21:09:01+00:00,319.6462,6.4,12.81,47.84626,-54.09684
2020-11-26 21:19:01+00:00,324.5397,6.4,12.73,47.84626,-54.09684
2020-11-26 21:29:01+00:00,325.6414,6.01,12.73,47.84626,-54.09684
2020-11-26 21:39:01+00:00,324.9997,5.86,12.73,47.84626,-54.09684
2020-11-26 21:49:01+00:00,323.728,5.89,12.73,47.84626,-54.09684
2020-11-26 21:59:01+00:00,322.4297,5.9,12.73,47.84626,-54.09684
2020-11-26 22:09:01+00:00,322.6213,5.99,12.73,47.84626,-54.09684
2020-11-26 22:19:01+00:00,319.843,5.9,12.65,47.84626,-54.09684
2020-11-26 22:29:01+00:00,317.308,6.1,12.65,47.84626,-54.09684
2020-11-26 22:39:01+00:00,313.6664,6.15,12.65,47.84626,-54.09684
2020-11-26 22:49:01+00:00,312.5913,6.16,12.65,47.84626,-54.09684
2020-11-26 22:59:01+00:00,315.438,6.05,12.65,47.84626,-54.09684
2020-11-26 23:09:01+00:00,310.2413,5.96,12.65,47.84626,-54.09684
2020-11-26 23:19:01+00:00,306.7813,5.98,12.65,47.84626,-54.09684
2020-11-26 23:29:01+00:00,301.233,6.07,12.65,47.84626,-54.09684
2020-11-26 23:39:01+00:00,295.2763,6.0,12.65,47.84626,-54.09684
2020-11-26 23:49:01+00:00,288.583,5.96,12.65,47.84626,-54.09684
2020-11-26 23:59:01+00:00,283.0747,5.98,12.65,47.84626,-54.09684
